Location: Aragnouet
(42.7874°N, 0.2165°E)
Time: 21:42:50
(UTC+00:00)

BREEZE M DEB (TANK) - Pass Details

Date: 09 April 2020
Orbit: 304 x 11878 km, 49.5° (Epoch: 22 May)

Event Time Altitude Azimuth Distance (km) Brightness Sun altitude
Rises 19:17:07 0° 205° (SSW) 2,058 5.3 -8.3°
Reaches altitude 10° 19:18:42 10° 191° (S) 1,386 4.3 -8.6°
Maximum altitude 19:21:06 28° 127° (SE) 1,012 3.1 -9.0°
Drops below altitude 10° 19:25:51 10° 68° (ENE) 2,836 5.5 -9.8°
Sets 19:30:47 0° 60° (ENE) 5,056 6.8 -10.6°
